EDT,Max TemperatureF,Mean TemperatureF,Min TemperatureF,Max Dew PointF,MeanDew PointF,Min DewpointF,Max Humidity, Mean Humidity, Min Humidity, Max Sea Level PressureIn, Mean Sea Level PressureIn, Min Sea Level PressureIn, Max VisibilityMiles, Mean VisibilityMiles, Min VisibilityMiles, Max Wind SpeedMPH, Mean Wind SpeedMPH, Max Gust SpeedMPH,PrecipitationIn, CloudCover, Events, WindDirDegrees
2013-10-1,82,68,54,58,54,50,100,66,36,30.00,29.96,29.88,10,10,10,10,3,20,0.00,0,Fog,282
2013-10-2,86,70,53,60,56,52,100,64,38,30.01,29.95,29.90,10,9,6,15,3,21,0.00,0,Fog,293
2013-10-3,82,70,59,59,55,49,83,59,33,30.12,30.07,30.02,10,10,10,7,2,,0.00,0,Fog,228
2013-10-4,90,75,62,69,61,56,84,64,40,30.05,30.01,29.95,10,9,5,13,2,17,0.01,3,Fog-Rain,225
2013-10-5,79,72,66,63,62,61,83,75,58,30.10,30.06,30.02,10,7,4,8,3,,0.00,6,,83
2013-10-6,73,69,66,66,64,63,87,83,78,30.10,30.06,30.03,6,4,2,16,6,33,0.00,8,Rain,108
2013-10-7,82,70,61,70,64,48,88,79,62,30.01,29.88,29.75,10,7,2,23,10,33,0.31,7,Rain,187
2013-10-8,71,61,52,46,44,40,80,54,36,30.33,30.20,30.01,10,10,10,10,4,,0.00,0,,347
2013-10-9,64,58,53,48,44,39,70,59,48,30.41,30.34,30.30,10,10,10,14,6,22,0.00,0,,35
2013-10-10,64,60,55,52,49,44,77,67,62,30.27,30.18,30.08,10,10,10,9,7,16,0.01,6,Rain,18
2013-10-11,71,66,61,58,55,51,73,67,59,30.09,30.05,30.02,10,10,2,10,7,23,0.00,7,Rain,33
2013-10-12,75,67,61,55,48,38,68,53,28,30.28,30.19,30.08,10,10,10,18,9,28,0.00,5,,60
2013-10-13,66,62,57,51,48,47,72,64,54,30.39,30.34,30.29,10,10,10,12,8,22,0.00,6,,61
2013-10-14,73,61,53,50,47,44,82,66,40,30.37,30.32,30.24,10,10,10,8,1,,0.00,2,,66
2013-10-15,77,62,51,51,49,45,86,65,41,30.26,30.19,30.12,10,10,10,8,2,20,0.00,0,Fog,110
2013-10-16,81,68,55,58,53,47,84,72,41,30.11,30.02,29.92,10,10,5,12,4,23,0.00,4,,65
2013-10-17,79,68,62,63,59,57,88,76,55,29.91,29.83,29.68,10,8,3,13,7,17,0.01,7,Rain,188
2013-10-18,71,64,55,62,46,40,84,53,32,29.98,29.83,29.68,10,10,8,16,10,26,0.01,2,Rain,267
2013-10-19,66,55,46,52,45,39,80,62,42,29.98,29.88,29.75,10,10,10,12,4,46,0.00,3,Rain,191
2013-10-20,66,57,48,50,37,31,72,49,28,30.06,29.92,29.76,10,10,10,14,8,22,0.00,1,,277
2013-10-21,73,57,44,45,38,33,76,53,26,30.15,30.07,29.99,10,10,10,15,3,20,0.00,0,Fog,195
2013-10-22,66,56,46,49,44,37,83,63,48,29.97,29.83,29.75,10,10,8,15,5,,0.00,2,Fog-Rain,230
2013-10-23,57,50,43,40,35,32,76,59,39,29.82,29.73,29.62,10,10,10,17,3,22,0.00,4,,336
2013-10-24,57,48,39,34,29,23,70,49,28,30.01,29.89,29.76,10,10,10,16,8,24,0.00,1,,275
2013-10-25,55,46,37,31,28,24,70,50,31,30.23,30.12,30.01,10,10,10,16,7,23,0.00,1,,280
2013-10-26,57,46,36,33,29,26,82,53,30,30.22,30.08,29.90,10,10,10,18,5,26,0.00,1,,208
2013-10-27,62,52,44,32,29,27,58,42,29,30.12,29.96,29.86,10,10,10,14,7,22,0.00,3,Rain,260
2013-10-28,64,50,37,35,31,29,76,49,29,30.32,30.20,30.13,10,10,10,14,3,22,0.00,0,,276
2013-10-29,57,51,45,33,30,27,63,48,35,30.43,30.37,30.33,10,10,10,9,3,,0.00,3,,21
2013-10-30,64,54,43,47,41,32,83,62,51,30.34,30.26,30.18,10,10,10,6,2,,0.00,6,Fog,341
2013-10-31,71,56,46,59,51,43,87,77,67,30.23,30.06,29.81,10,7,2,12,2,,0.02,7,Fog-Rain,180